PRVDJ SBJD-SBMT

Flight info

Callsign PRVDJ
Flight time 0h 13m
Altitude 4500
Route DCT 2314S04652W REA 2325S04645W DCT
Aircraft SR22/L-SDFRY/S

Departure

Time 2026-05-08 21:39
Airport Comte. Rolim Adolfo Amaro–Jundiaí State Airport (SBJD)

Arrival

Time 2026-05-08 21:53
Airport Campo de Marte Airport (SBMT)
Time Latitude Longitude Altitude Speed Heading
2026-05-08 21:23 -23.18042 -46.94260 2474 ft 0 kts 246°
2026-05-08 21:32 -23.18043 -46.94264 2476 ft 0 kts 257°
2026-05-08 21:33 -23.18044 -46.94279 2477 ft 5 kts 264°
2026-05-08 21:33 -23.18057 -46.94299 2479 ft 3 kts 171°
2026-05-08 21:33 -23.18109 -46.94279 2482 ft 12 kts 155°
2026-05-08 21:33 -23.18208 -46.94233 2488 ft 16 kts 157°
2026-05-08 21:34 -23.18304 -46.94188 2494 ft 13 kts 155°
2026-05-08 21:34 -23.18387 -46.94150 2496 ft 13 kts 156°
2026-05-08 21:34 -23.18475 -46.94109 2498 ft 13 kts 156°
2026-05-08 21:34 -23.18500 -46.94098 2498 ft 0 kts 159°
2026-05-08 21:37 -23.18515 -46.94091 2496 ft 6 kts 159°
2026-05-08 21:37 -23.18619 -46.94073 2500 ft 10 kts 212°
2026-05-08 21:38 -23.18639 -46.94101 2503 ft 4 kts 253°
2026-05-08 21:38 -23.18644 -46.94118 2505 ft 2 kts 258°
2026-05-08 21:38 -23.18597 -46.94157 2505 ft 24 kts 337°
2026-05-08 21:38 -23.18074 -46.94397 2527 ft 84 kts 335°
2026-05-08 21:39 -23.17709 -46.94558 2689 ft 84 kts 335°
2026-05-08 21:39 -23.17153 -46.94795 2900 ft 87 kts 337°
2026-05-08 21:39 -23.16401 -46.95037 3149 ft 95 kts 355°
2026-05-08 21:39 -23.15822 -46.94559 3176 ft 130 kts 63°
2026-05-08 21:40 -23.15845 -46.93877 3212 ft 146 kts 110°
2026-05-08 21:40 -23.16485 -46.93000 3385 ft 150 kts 136°
2026-05-08 21:40 -23.17536 -46.92043 3693 ft 148 kts 139°
2026-05-08 21:41 -23.18846 -46.90841 4095 ft 148 kts 138°
2026-05-08 21:41 -23.19645 -46.90125 4333 ft 147 kts 139°
2026-05-08 21:41 -23.20447 -46.89413 4493 ft 154 kts 139°
2026-05-08 21:41 -23.21648 -46.88377 4513 ft 174 kts 146°
2026-05-08 21:42 -23.22719 -46.87666 4516 ft 184 kts 149°
2026-05-08 21:42 -23.23834 -46.86938 4510 ft 189 kts 149°
2026-05-08 21:42 -23.24596 -46.86445 4515 ft 191 kts 149°
2026-05-08 21:42 -23.25739 -46.85696 4513 ft 194 kts 149°
2026-05-08 21:43 -23.27366 -46.84843 4501 ft 195 kts 158°
2026-05-08 21:43 -23.28212 -46.84436 4502 ft 195 kts 157°
2026-05-08 21:43 -23.29455 -46.83832 4502 ft 196 kts 156°
2026-05-08 21:43 -23.30702 -46.83233 4491 ft 196 kts 156°
2026-05-08 21:44 -23.31958 -46.82617 4482 ft 196 kts 155°
2026-05-08 21:44 -23.33140 -46.81880 4490 ft 196 kts 147°
2026-05-08 21:44 -23.34692 -46.80850 4480 ft 196 kts 147°
2026-05-08 21:44 -23.35484 -46.80334 4482 ft 196 kts 148°
2026-05-08 21:45 -23.36643 -46.79552 4465 ft 196 kts 149°
2026-05-08 21:45 -23.38151 -46.78535 4378 ft 188 kts 147°
2026-05-08 21:45 -23.39263 -46.77811 4242 ft 186 kts 150°
2026-05-08 21:45 -23.40371 -46.77072 4123 ft 184 kts 149°
2026-05-08 21:46 -23.41433 -46.76329 4072 ft 178 kts 145°
2026-05-08 21:46 -23.42545 -46.75759 4021 ft 175 kts 162°
2026-05-08 21:46 -23.43722 -46.75381 3910 ft 176 kts 163°
2026-05-08 21:46 -23.44510 -46.75139 3831 ft 176 kts 166°
2026-05-08 21:47 -23.45652 -46.74677 3707 ft 177 kts 149°
2026-05-08 21:47 -23.46992 -46.73693 3559 ft 174 kts 134°
2026-05-08 21:47 -23.47812 -46.72710 3557 ft 167 kts 132°
2026-05-08 21:47 -23.48564 -46.71786 3558 ft 162 kts 129°
2026-05-08 21:48 -23.49324 -46.70889 3559 ft 158 kts 133°
2026-05-08 21:48 -23.49802 -46.70297 3554 ft 156 kts 131°
2026-05-08 21:48 -23.50749 -46.69118 3585 ft 150 kts 130°
2026-05-08 21:48 -23.51189 -46.68544 3602 ft 148 kts 130°
2026-05-08 21:49 -23.51982 -46.67340 3606 ft 145 kts 109°
2026-05-08 21:49 -23.52252 -46.66290 3618 ft 143 kts 101°
2026-05-08 21:49 -23.52521 -46.65248 3612 ft 142 kts 104°
2026-05-08 21:49 -23.52749 -46.64203 3615 ft 140 kts 100°
2026-05-08 21:50 -23.52900 -46.63177 3570 ft 134 kts 94°
2026-05-08 21:50 -23.53001 -46.62228 3648 ft 116 kts 91°
2026-05-08 21:50 -23.53099 -46.61420 3676 ft 102 kts 94°
2026-05-08 21:50 -23.53100 -46.60716 3583 ft 90 kts 58°
2026-05-08 21:51 -23.52621 -46.60336 3469 ft 85 kts
2026-05-08 21:51 -23.52030 -46.60267 3323 ft 84 kts
2026-05-08 21:51 -23.51491 -46.60392 3171 ft 84 kts 314°
2026-05-08 21:51 -23.51347 -46.60780 3036 ft 86 kts 281°
2026-05-08 21:52 -23.51249 -46.61617 2804 ft 78 kts 281°
2026-05-08 21:52 -23.51166 -46.62231 2659 ft 86 kts 281°
2026-05-08 21:52 -23.51068 -46.62883 2459 ft 88 kts 283°
2026-05-08 21:52 -23.50966 -46.63487 2376 ft 68 kts 282°
2026-05-08 21:53 -23.50895 -46.63893 2376 ft 31 kts 282°
2026-05-08 21:53 -23.50885 -46.63948 2376 ft 1 kts 215°
2026-05-08 21:53 -23.50930 -46.63937 2376 ft 10 kts 191°
2026-05-08 21:53 -23.50962 -46.63867 2376 ft 10 kts 101°
2026-05-08 21:54 -23.50977 -46.63777 2376 ft 12 kts 102°
2026-05-08 21:54 -23.50995 -46.63674 2376 ft 14 kts 97°
2026-05-08 21:54 -23.51013 -46.63563 2376 ft 15 kts 102°
2026-05-08 21:54 -23.51030 -46.63466 2376 ft 6 kts 102°
2026-05-08 21:55 -23.51090 -46.63447 2376 ft 13 kts 172°
2026-05-08 21:55 -23.51178 -46.63430 2376 ft 9 kts 173°
2026-05-08 21:55 -23.51227 -46.63410 2376 ft 7 kts 97°
2026-05-08 21:56 -23.51208 -46.63350 2376 ft 0 kts